When you browse on this site, cookies collect data to enhance your experience and personalize the content and advertising you see.
Visit our Privacy Policy to learn more. By continuing to use the site, you agree to this use of cookies and data.
  • Em Portugal
  • Lista de países
  • Para 7 dias
  • Temperatura da água
  • Mapa do tempo
  • Widgets de tempo
  • user-avatar
    Iniciar Sessão

    Previsão horária em Merida

    Hoje, 20 Novembro, Quarta-feira

    Tempo Temperatura Precipitação Vento Pressão Humidade
    00:00 +9°C° 0 mm 1 m/s 739 mmHg 73%
    01:00 +9°C° 0 mm 1 m/s 739 mmHg 73%
    02:00 +8°C° 0 mm 1 m/s 739 mmHg 73%
    03:00 +8°C° 0 mm 1 m/s 738 mmHg 73%
    04:00 +8°C° 0.2 mm 1 m/s 738 mmHg 75%
    05:00 +8°C° 0.2 mm 1 m/s 738 mmHg 76%
    06:00 +7°C° 0.2 mm 2 m/s 738 mmHg 77%
    07:00 +8°C° 0.7 mm 2 m/s 738 mmHg 80%
    08:00 +8°C° 0.7 mm 2 m/s 738 mmHg 83%
    09:00 +8°C° 0.7 mm 3 m/s 738 mmHg 85%
    10:00 +8°C° 0.6 mm 3 m/s 738 mmHg 85%
    11:00 +9°C° 0.6 mm 3 m/s 737 mmHg 85%
    12:00 +10°C° 0.6 mm 3 m/s 737 mmHg 85%
    13:00 +10°C° 0.2 mm 3 m/s 737 mmHg 85%
    14:00 +10°C° 0.2 mm 2 m/s 736 mmHg 84%
    15:00 +12°C° 0.2 mm 2 m/s 736 mmHg 84%
    16:00 +10°C° 0.2 mm 2 m/s 736 mmHg 87%
    17:00 +10°C° 0.2 mm 2 m/s 736 mmHg 90%
    18:00 +9°C° 0.2 mm 2 m/s 736 mmHg 93%
    19:00 +9°C° 0.3 mm 2 m/s 736 mmHg 93%
    20:00 +9°C° 0.3 mm 2 m/s 737 mmHg 94%
    21:00 +8°C° 0.3 mm 2 m/s 737 mmHg 95%
    22:00 +8°C° 0.1 mm 2 m/s 737 mmHg 95%
    23:00 +8°C° 0.1 mm 2 m/s 737 mmHg 95%

    Amanhã, 21 Novembro, Quinta-feira

    Tempo Temperatura Precipitação Vento Pressão Humidade
    00:00 +8°C° 0.1 mm 2 m/s 737 mmHg 95%
    01:00 +8°C° 0 mm 2 m/s 737 mmHg 96%
    02:00 +8°C° 0 mm 2 m/s 737 mmHg 96%
    03:00 +8°C° 0 mm 2 m/s 737 mmHg 96%
    04:00 +8°C° 0 mm 2 m/s 737 mmHg 96%
    05:00 +9°C° 0 mm 2 m/s 737 mmHg 95%
    06:00 +9°C° 0 mm 2 m/s 736 mmHg 95%
    07:00 +9°C° 0.2 mm 2 m/s 737 mmHg 93%
    08:00 +10°C° 0.2 mm 2 m/s 737 mmHg 92%
    09:00 +10°C° 0.2 mm 2 m/s 737 mmHg 90%
    10:00 +10°C° 0.4 mm 2 m/s 737 mmHg 90%
    11:00 +10°C° 0.4 mm 2 m/s 737 mmHg 91%
    12:00 +10°C° 0.4 mm 2 m/s 736 mmHg 91%
    13:00 +10°C° 0.6 mm 2 m/s 736 mmHg 92%
    14:00 +11°C° 0.6 mm 1 m/s 736 mmHg 93%
    15:00 +11°C° 0.6 mm 1 m/s 735 mmHg 93%
    16:00 +11°C° 0.2 mm 1 m/s 735 mmHg 94%
    17:00 +11°C° 0.2 mm 1 m/s 735 mmHg 95%
    18:00 +11°C° 0.2 mm 1 m/s 735 mmHg 95%
    19:00 +11°C° 0 mm 1 m/s 735 mmHg 95%
    20:00 +11°C° 0 mm 1 m/s 735 mmHg 95%
    21:00 +10°C° 0 mm 2 m/s 735 mmHg 95%
    22:00 +10°C° 0 mm 2 m/s 735 mmHg 95%
    23:00 +10°C° 0 mm 2 m/s 735 mmHg 95%

    Depois de amanhã, 22 Novembro, Sexta-feira

    Tempo Temperatura Precipitação Vento Pressão Humidade
    00:00 +12°C° 0 mm 2 m/s 735 mmHg 95%
    01:00 +11°C° 0.1 mm 3 m/s 734 mmHg 94%
    02:00 +11°C° 0.1 mm 3 m/s 734 mmHg 94%
    03:00 +11°C° 0.1 mm 4 m/s 733 mmHg 94%
    04:00 +10°C° 0.4 mm 5 m/s 733 mmHg 92%
    05:00 +11°C° 0.4 mm 6 m/s 732 mmHg 90%
    06:00 +11°C° 0.4 mm 7 m/s 731 mmHg 88%
    07:00 +12°C° 1.3 mm 8 m/s 730 mmHg 88%
    08:00 +12°C° 1.3 mm 10 m/s 730 mmHg 87%
    09:00 +13°C° 1.3 mm 12 m/s 730 mmHg 87%
    10:00 +13°C° 3 mm 11 m/s 729 mmHg 88%
    11:00 +13°C° 3 mm 10 m/s 728 mmHg 89%
    12:00 +14°C° 3 mm 10 m/s 728 mmHg 90%
    13:00 +14°C° 1.7 mm 10 m/s 728 mmHg 87%
    14:00 +15°C° 1.7 mm 9 m/s 727 mmHg 85%
    15:00 +15°C° 1.7 mm 9 m/s 727 mmHg 82%
    16:00 +13°C° 0.1 mm 8 m/s 728 mmHg 82%
    17:00 +12°C° 0.1 mm 8 m/s 729 mmHg 81%
    18:00 +11°C° 0.1 mm 7 m/s 729 mmHg 81%
    19:00 +11°C° 0.1 mm 7 m/s 730 mmHg 82%
    20:00 +11°C° 0.1 mm 7 m/s 730 mmHg 84%
    21:00 +11°C° 0.1 mm 7 m/s 731 mmHg 85%
    22:00 +10°C° 0.1 mm 7 m/s 731 mmHg 85%
    23:00 +10°C° 0.1 mm 7 m/s 732 mmHg 85%

    23 Novembro, Sábado

    Tempo Temperatura Precipitação Vento Pressão Humidade
    00:00 +9°C° 0.1 mm 7 m/s 732 mmHg 85%
    01:00 +9°C° 0.3 mm 7 m/s 732 mmHg 85%
    02:00 +9°C° 0.3 mm 7 m/s 732 mmHg 86%
    03:00 +9°C° 0.3 mm 7 m/s 732 mmHg 86%
    04:00 +8°C° 0.2 mm 6 m/s 733 mmHg 85%
    05:00 +8°C° 0.2 mm 6 m/s 733 mmHg 85%
    06:00 +7°C° 0.2 mm 5 m/s 734 mmHg 85%
    07:00 +8°C° 0 mm 5 m/s 734 mmHg 83%
    08:00 +8°C° 0 mm 6 m/s 735 mmHg 81%
    09:00 +8°C° 0 mm 6 m/s 736 mmHg 80%
    10:00 +10°C° 0 mm 6 m/s 737 mmHg 72%
    11:00 +11°C° 0 mm 6 m/s 737 mmHg 65%
    12:00 +13°C° 0 mm 6 m/s 738 mmHg 58%
    13:00 +13°C° 0 mm 6 m/s 738 mmHg 56%
    14:00 +13°C° 0 mm 6 m/s 738 mmHg 55%
    15:00 +13°C° 0 mm 6 m/s 738 mmHg 53%
    16:00 +12°C° 0 mm 5 m/s 738 mmHg 60%
    17:00 +11°C° 0 mm 4 m/s 739 mmHg 66%
    18:00 +10°C° 0 mm 3 m/s 740 mmHg 72%
    19:00 +9°C° 0 mm 3 m/s 740 mmHg 75%
    20:00 +8°C° 0 mm 2 m/s 741 mmHg 78%
    21:00 +8°C° 0 mm 2 m/s 741 mmHg 81%
    22:00 +7°C° 0 mm 2 m/s 742 mmHg 83%
    23:00 +7°C° 0 mm 2 m/s 742 mmHg 85%

    24 Novembro, Domingo

    Tempo Temperatura Precipitação Vento Pressão Humidade
    00:00 +7°C° 0 mm 2 m/s 742 mmHg 87%
    01:00 +6°C° 0 mm 2 m/s 742 mmHg 88%
    02:00 +7°C° 0 mm 1 m/s 742 mmHg 88%
    03:00 +7°C° 0 mm 1 m/s 742 mmHg 89%
    04:00 +6°C° 0 mm 1 m/s 743 mmHg 89%
    05:00 +6°C° 0 mm 1 m/s 743 mmHg 89%
    06:00 +6°C° 0 mm 1 m/s 743 mmHg 90%
    07:00 +7°C° 0 mm 1 m/s 744 mmHg 86%
    08:00 +7°C° 0 mm 0 m/s 744 mmHg 83%
    09:00 +8°C° 0 mm 0 m/s 745 mmHg 79%
    10:00 +10°C° 0 mm 1 m/s 745 mmHg 73%
    11:00 +11°C° 0 mm 1 m/s 745 mmHg 67%
    12:00 +13°C° 0 mm 1 m/s 745 mmHg 60%
    13:00 +13°C° 0 mm 1 m/s 744 mmHg 58%
    14:00 +14°C° 0 mm 2 m/s 744 mmHg 56%
    15:00 +14°C° 0 mm 2 m/s 743 mmHg 54%
    16:00 +13°C° 0 mm 1 m/s 744 mmHg 61%
    17:00 +12°C° 0 mm 1 m/s 744 mmHg 67%
    18:00 +11°C° 0 mm 1 m/s 744 mmHg 73%
    19:00 +10°C° 0 mm 1 m/s 744 mmHg 75%
    20:00 +10°C° 0 mm 1 m/s 745 mmHg 77%
    21:00 +10°C° 0 mm 1 m/s 745 mmHg 80%
    22:00 +9°C° 0 mm 0 m/s 745 mmHg 82%
    23:00 +9°C° 0 mm 0 m/s 745 mmHg 84%

    25 Novembro, Segunda-feira

    Tempo Temperatura Precipitação Vento Pressão Humidade
    00:00 +8°C° 0 mm 0 m/s 745 mmHg 87%
    01:00 +8°C° 0 mm 0 m/s 745 mmHg 88%
    02:00 +8°C° 0 mm 0 m/s 745 mmHg 89%
    03:00 +8°C° 0 mm 0 m/s 745 mmHg 90%
    04:00 +8°C° 0 mm 0 m/s 745 mmHg 91%
    05:00 +8°C° 0 mm 0 m/s 745 mmHg 91%
    06:00 +8°C° 0 mm 0 m/s 745 mmHg 92%
    07:00 +9°C° 0 mm 1 m/s 745 mmHg 89%
    08:00 +10°C° 0 mm 1 m/s 745 mmHg 86%
    09:00 +11°C° 0 mm 1 m/s 746 mmHg 84%
    10:00 +13°C° 0 mm 1 m/s 746 mmHg 79%
    11:00 +14°C° 0 mm 1 m/s 746 mmHg 74%
    12:00 +15°C° 0 mm 0 m/s 746 mmHg 69%
    13:00 +16°C° 0 mm 1 m/s 745 mmHg 69%
    14:00 +18°C° 0 mm 1 m/s 745 mmHg 69%
    15:00 +18°C° 0 mm 1 m/s 744 mmHg 69%
    16:00 +18°C° 0 mm 1 m/s 744 mmHg 72%
    17:00 +16°C° 0 mm 1 m/s 744 mmHg 76%
    18:00 +14°C° 0 mm 0 m/s 745 mmHg 80%
    19:00 +14°C° 0 mm 0 m/s 745 mmHg 81%
    20:00 +14°C° 0 mm 0 m/s 745 mmHg 82%
    21:00 +13°C° 0 mm 0 m/s 745 mmHg 84%
    22:00 +13°C° 0 mm 0 m/s 745 mmHg 85%
    23:00 +12°C° 0 mm 0 m/s 745 mmHg 87%
    Mostrar mais